Weather History for Jennings, LA

Change the Weather History Date:

Monday, December 30, 2013

  Actual Average (KLCH) Record (KLCH)
Temperature  
Mean Temperature 46 °F 52 °F  
Max Temperature 48 °F 62 °F 80 °F (1964)
Min Temperature 43 °F 42 °F 21 °F (1983)
Degree Days  
Heating Degree Days 20 14  
Month to date heating degree days 352  
Since 1 July heating degree days 559  
Cooling Degree Days 0 1  
Month to date cooling degree days 30  
Year to date cooling degree days 2819  
Moisture  
Dew Point 43 °F    
Average Humidity 87    
Maximum Humidity 95    
Minimum Humidity 80    
Precipitation  
Precipitation 0.00 in 0.16 in 4.11 in (2006)
Month to date precipitation 4.52  
Year to date precipitation 57.33  
Snow  
Snow 0.00 in 0.00 in 0.00 in ()
Month to date snowfall 0.0  
Since 1 July snowfall 0.0  
Snow Depth -    
Sea Level Pressure  
Sea Level Pressure 30.23 in    
Wind  
Wind Speed 3 mph (NNW)    
Max Wind Speed 10 mph    
Max Gust Speed -    
Visibility 10 miles    
Events      
T = Trace of Precipitation, MM = Missing Value Source: NWS Daily Summary

Daily Weather History Graph

Daily Weather History Graph

Search for Another Location

Airport:

Trip Planner

Search our weather history database for the weather conditions in past years. The results will help you decide how hot, cold, wet, or windy it might be!

Date:

Astronomy

Dec. 30, 2013 Rise Set
Actual Time 7:06 AM CST 5:20 PM CST
Civil Twilight 6:40 AM CST 5:46 PM CST
Nautical Twilight 6:10 AM CST 6:16 PM CST
Astronomical Twilight 5:41 AM CST 6:45 PM CST
Moon 5:00 AM CST (12/30) 3:50 PM CST (12/30)
Length of Visible Light 11h 06m
Length of Day
10h 13m
Waning Crescent, 4% of the Moon is Illuminated
Dec 30
Waning Crescent
Jan 1
New
Jan 7
First Quarter
Jan 15
Full
Jan 23
Last Quarter

Hourly Weather History & Observations

Time (CST) Temp. Windchill Dew Point Humidity Pressure Visibility Wind Dir Wind Speed Gust Speed Precip Events Conditions
12:15 AM 44.2 °F - 42.1 °F 92% 30.15 in 10.0 mi Calm Calm - N/A   Scattered Clouds
12:35 AM 44.8 °F - 42.8 °F 93% 30.14 in 10.0 mi Calm Calm - N/A   Clear
12:55 AM 45.1 °F - 43.5 °F 94% 30.15 in 10.0 mi Calm Calm - N/A   Scattered Clouds
1:15 AM 46.4 °F - 44.1 °F 92% 30.13 in 10.0 mi Calm Calm - N/A   Scattered Clouds
1:35 AM 46.2 °F - 44.1 °F 92% 30.13 in 10.0 mi Calm Calm - N/A   Clear
1:55 AM 45.5 °F 44.2 °F 43.7 °F 93% 30.14 in 10.0 mi South 3.5 mph - N/A   Clear
2:15 AM 45.3 °F - 43.5 °F 93% 30.13 in 10.0 mi Calm Calm - N/A   Clear
2:35 AM 45.5 °F - 43.3 °F 92% 30.13 in 10.0 mi Calm Calm - N/A   Clear
2:55 AM 46.4 °F - 43.7 °F 90% 30.13 in 10.0 mi Calm Calm - N/A   Clear
3:15 AM 46.4 °F - 43.7 °F 90% 30.14 in 10.0 mi Calm Calm - N/A   Clear
3:35 AM 45.5 °F - 43.9 °F 94% 30.14 in 10.0 mi Calm Calm - N/A   Clear
3:55 AM 45.5 °F - 43.7 °F 93% 30.14 in 10.0 mi Calm Calm - N/A   Scattered Clouds
4:15 AM 45.7 °F - 43.7 °F 93% 30.13 in 10.0 mi Calm Calm - N/A   Clear
4:35 AM 46.2 °F - 43.7 °F 91% 30.13 in 10.0 mi Calm Calm - N/A   Clear
4:55 AM 46.8 °F - 43.5 °F 88% 30.13 in 10.0 mi Calm Calm - N/A   Clear
5:15 AM 45.3 °F - 43.9 °F 95% 30.15 in 10.0 mi Calm Calm - N/A   Clear
5:35 AM 46.0 °F 44.8 °F 43.5 °F 91% 30.15 in 10.0 mi WNW 3.5 mph - N/A   Clear
5:55 AM 46.8 °F - 45.0 °F 93% 30.15 in 10.0 mi NNW 3.5 mph - N/A   Clear
6:15 AM 46.8 °F - 44.2 °F 91% 30.14 in 10.0 mi Calm Calm - N/A   Clear
6:35 AM 46.4 °F 45.2 °F 43.5 °F 90% 30.16 in 10.0 mi NW 3.5 mph - N/A   Clear
6:55 AM 46.9 °F - 43.9 °F 89% 30.17 in 10.0 mi NNW 5.8 mph - N/A   Clear
7:15 AM 46.8 °F - 43.7 °F 89% 30.18 in 10.0 mi NW 4.6 mph - N/A   Clear
7:35 AM 46.4 °F 44.3 °F 43.9 °F 91% 30.19 in 10.0 mi NNW 4.6 mph - N/A   Clear
7:55 AM 46.4 °F 44.3 °F 43.7 °F 90% 30.20 in 10.0 mi NNW 4.6 mph - N/A   Clear
8:15 AM 46.6 °F - 43.9 °F 90% 30.21 in 10.0 mi NW 4.6 mph - N/A   Clear
8:35 AM 46.6 °F - 44.1 °F 91% 30.23 in 10.0 mi NW 5.8 mph - N/A   Clear
8:55 AM 46.4 °F 42.9 °F 43.7 °F 90% 30.23 in 10.0 mi NNW 6.9 mph - N/A   Clear
9:15 AM 46.4 °F 42.4 °F 43.7 °F 90% 30.26 in 10.0 mi NW 8.1 mph - N/A   Clear
9:35 AM 46.4 °F 42.9 °F 43.0 °F 88% 30.25 in 10.0 mi North 6.9 mph - N/A   Clear
9:55 AM 46.6 °F - 42.8 °F 87% 30.26 in 10.0 mi North 6.9 mph - N/A   Clear
10:15 AM 46.8 °F - 42.8 °F 86% 30.26 in 10.0 mi North 9.2 mph - N/A   Clear
10:35 AM 46.9 °F - 42.6 °F 85% 30.25 in 10.0 mi North 8.1 mph - N/A   Clear
10:55 AM 47.5 °F - 43.2 °F 85% 30.27 in 10.0 mi North 9.2 mph - N/A   Clear
11:15 AM 47.8 °F - 43.0 °F 83% 30.25 in 10.0 mi North 5.8 mph - N/A   Clear
11:35 AM 47.8 °F - 42.8 °F 83% 30.26 in 10.0 mi North 10.4 mph - N/A   Scattered Clouds
11:55 AM 48.2 °F - 42.8 °F 82% 30.24 in 10.0 mi North 8.1 mph - N/A   Clear
12:15 PM 48.2 °F - 42.8 °F 82% 30.23 in 10.0 mi North 8.1 mph - N/A   Clear
12:35 PM 48.2 °F - 42.8 °F 82% 30.21 in 10.0 mi North 6.9 mph - N/A   Clear
12:55 PM 48.7 °F - 43.0 °F 80% 30.22 in 10.0 mi North 6.9 mph - N/A   Clear
1:15 PM 48.4 °F - 43.0 °F 82% 30.22 in 10.0 mi NNW 9.2 mph - N/A   Clear
1:35 PM 48.2 °F - 42.8 °F 82% 30.23 in 10.0 mi NNW 9.2 mph - N/A   Clear
1:55 PM 48.2 °F - 42.8 °F 82% 30.21 in 10.0 mi NNW 4.6 mph - N/A   Clear
2:15 PM 48.2 °F - 42.8 °F 82% 30.21 in 10.0 mi North 5.8 mph - N/A   Clear
2:55 PM 48.4 °F - 43.0 °F 82% 30.22 in 10.0 mi NNW 9.2 mph - N/A   Clear
3:15 PM 48.4 °F - 43.0 °F 82% 30.22 in 10.0 mi North 5.8 mph - N/A   Clear
3:35 PM 48.6 °F - 43.0 °F 81% 30.22 in 10.0 mi NNW 4.6 mph - N/A   Clear
3:55 PM 48.2 °F - 42.8 °F 82% 30.22 in 10.0 mi NNW 4.6 mph - N/A   Clear
4:15 PM 48.2 °F - 43.0 °F 82% 30.23 in 10.0 mi NNW 5.8 mph - N/A   Clear
4:35 PM 48.2 °F - 43.0 °F 82% 30.24 in 10.0 mi NNW 5.8 mph - N/A   Clear
4:55 PM 47.8 °F - 43.3 °F 84% 30.25 in 10.0 mi NNW 4.6 mph - N/A   Clear
5:15 PM 47.7 °F - 43.3 °F 85% 30.26 in 10.0 mi NNW 8.1 mph - N/A   Clear
5:35 PM 47.5 °F - 43.2 °F 85% 30.26 in 10.0 mi NNW 3.5 mph - N/A   Mostly Cloudy
5:55 PM 47.5 °F - 43.3 °F 86% 30.27 in 10.0 mi NNW 5.8 mph - N/A   Overcast
6:15 PM 47.5 °F - 43.0 °F 84% 30.28 in 10.0 mi NNW 6.9 mph - N/A   Mostly Cloudy
6:35 PM 47.5 °F - 43.2 °F 85% 30.28 in 10.0 mi NNW 6.9 mph - N/A   Mostly Cloudy
6:55 PM 47.3 °F - 43.0 °F 85% 30.28 in 10.0 mi North 5.8 mph - N/A   Mostly Cloudy
7:15 PM 47.3 °F - 43.0 °F 85% 30.29 in 10.0 mi North 4.6 mph - N/A   Mostly Cloudy
7:35 PM 47.3 °F - 42.8 °F 84% 30.30 in 10.0 mi NNW 3.5 mph - N/A   Overcast
7:55 PM 46.9 °F - 43.0 °F 86% 30.30 in 10.0 mi North 6.9 mph - N/A   Mostly Cloudy
8:15 PM 46.9 °F - 43.2 °F 87% 30.31 in 10.0 mi NNW 6.9 mph - N/A   Scattered Clouds
8:35 PM 46.6 °F - 43.2 °F 88% 30.32 in 10.0 mi North 4.6 mph - N/A   Scattered Clouds
8:55 PM 46.4 °F 43.5 °F 43.3 °F 89% 30.33 in 10.0 mi North 5.8 mph - N/A   Mostly Cloudy
9:15 PM 46.4 °F 43.5 °F 43.2 °F 88% 30.34 in 10.0 mi North 5.8 mph - N/A   Overcast
9:35 PM 46.0 °F 41.9 °F 43.0 °F 89% 30.33 in 10.0 mi North 8.1 mph - N/A   Overcast
9:55 PM 46.0 °F 41.4 °F 41.9 °F 85% 30.35 in 10.0 mi North 9.2 mph - N/A   Mostly Cloudy
10:15 PM 45.5 °F 41.8 °F 41.9 °F 87% 30.36 in 10.0 mi North 6.9 mph - N/A   Scattered Clouds
10:35 PM 45.5 °F 41.8 °F 42.1 °F 88% 30.37 in 10.0 mi North 6.9 mph - N/A   Scattered Clouds
10:55 PM 44.8 °F 39.4 °F 41.2 °F 87% 30.36 in 10.0 mi North 10.4 mph - N/A   Scattered Clouds
11:15 PM 44.4 °F 40.5 °F 40.8 °F 87% 30.36 in 10.0 mi North 6.9 mph - N/A   Clear
11:35 PM 43.7 °F 39.1 °F 40.3 °F 88% 30.36 in 10.0 mi North 8.1 mph - N/A   Clear
11:55 PM 43.2 °F 37.4 °F 40.3 °F 90% 30.36 in 10.0 mi North 10.4 mph - N/A   Clear